LES 8 9/SOL 11A B DEB *, 13753

Orbit data source: Space-Track

LES 8 9/SOL 11A B DEB *, 13753 is space debris in GEO originally from a launch on Mon, 15 Mar 1976 UTC launched from the Air Force Eastern Test Range (AFETR). Debris objects in space refer to the collection of defunct objects orbiting the Earth. Examples of debris include non-operational satellites, rocket bodies, and fragments generated from explosions, collisions, or faulty payload assembly.

Loading next visibility...
LES 8 9/SOL 11A B DEB * details
Identifier
13753, 1976-023K
Orbit
GEO
Last TLE update1 day ago
Origin
Flag of USSAMSO (US)
ManufacturerUnknown
Mission LES 9 operational debris"
Bus & MotorUnknown
MassUnknown
Launch date (UTC)
1976-03-15 (49 years ago)
Launch vehicleUnknown
Launch site
Air Force Eastern Test Range (AFETR)
Object type
Payload
Rocket body
Debris
Shape & HBRUnknown
Radar Cross SectionLarge (>1 m²)

Expand to show TLE details & history

TLE from 1 day ago
0 LES 8 9/SOL 11A B DEB *
1 13753U 76023K   25035.30526662 -.00000191  00000-0  00000-0 0  9994
2 13753   6.0619 286.3891 0003179  34.7586 176.1218  1.01345611117460
Epoch: 2025-02-04T07:19Z
Definitive object data (Epoch: 2025-02-04T07:19:35.035Z)
Latitude-3.09763°
Longitude-107.44599°
Altitude35,501.519 km
Speed3.085 km/s
True Right ascension09h 08m 38s
True Declination-3° 05' 40"
Sunlit
Object was in daylight at TLE epoch
Visualization TLE readout
Latitude-2.97451°
Longitude-108.78563°
Altitude35,501.469 km
Speed3.085 km/s
Apparent Right ascension09h 04m 04s
Apparent Declination-9° 35' 39"
Sunlit
Object is in daylight
Visualization observer readout
Local Sidereal Time08:57:22
Azimuth177.83° S
Elevation40.465°
Doppler factor1
Orbital elements
Apogee altitude35,502.593 km
Perigee altitude35,475.974 km
Semi-major axis41,867.421 km
Eccentricity0.0003179
Inclination6.0619°
RAAN286.3891°
Arg. of periapsis34.7586°
True anomaly176.12426°
Mean anomaly176.1218°
Eccentric anomaly176.12303°
Mean motion0.25335 °/min
BSTARUnknown
Orbital period1420.93 mins
Loading historical data...
13753 neighbors
Authenticating...
Loading maneuver chart data...
Loading historical data...
Loading historical data...
Loading historical data...
Loading historical data...
Loading historical data...
Loading historical data...
Loading historical data...

LES 8 9/SOL 11A B DEB * Visibility forecast

Observer location: undefined°, undefined

Span
Click to sort rows by Start time (UTC) header in descending order
Start Az.
Max El. time (UTC)
Max El. Az.
Max El.
End time (UTC)
End Az.
1440 mins2025-02-05 06:55:07.550Z177.831° S2025-02-05 22:45:07.550Z172.542° S37.597°2025-02-06 06:55:07.550Z172.267° S
|